Location: Unspecified
(0.0000°N, 0.0000°E)
Time: 11:24:10
(UTC+01:00)

Ariane H10 - Visible Passes

Search period start: 21 January 2018 00:00
Search period end: 31 January 2018 00:00
Orbit: 517 x 34739 km, 7.2° (Epoch: 19 January)

Date Brightness Start Highest point End Pass type
(mag) Time Alt. Az. Time Alt. Az. Time Alt. Az.
21 Jan 3.6 20:11:30 10° WSW 20:14:31 51° S 20:18:14 18° E visible
23 Jan 7.8 03:46:13 59° WNW 05:44:11 81° NNW 13:05:16 10° ESE visible
24 Jan 9.0 00:20:37 38° ENE 00:20:37 38° ENE 09:22:06 10° E visible
24 Jan 3.6 20:10:18 10° WSW 20:13:22 55° SSE 20:17:27 18° E visible
26 Jan 7.7 03:46:39 59° WNW 05:32:26 81° NNW 13:04:05 10° ESE visible
27 Jan 7.6 00:21:03 39° ENE 00:21:03 39° ENE 09:21:20 10° E visible
27 Jan 3.5 20:09:02 10° WSW 20:12:09 59° SSE 20:16:38 18° E visible
29 Jan 7.7 03:47:05 59° WNW 05:25:34 80° NNW 13:02:50 10° ESE visible
30 Jan 7.5 00:21:30 40° ENE 00:21:30 40° ENE 09:20:29 10° E visible
30 Jan 3.5 20:07:43 10° WSW 20:10:52 64° S 20:15:48 17° E visible
